When you browse on this site, cookies collect data to enhance your experience and personalize the content and advertising you see.
Visit our Privacy Policy to learn more. By continuing to use the site, you agree to this use of cookies and data.
  • Em Portugal
  • Lista de países
  • Para 7 dias
  • Temperatura da água
  • Mapas de satélite
  • Mapa do tempo
  • Widgets de tempo
  • user-avatar
    Iniciar Sessão

    Previsão horária em Khmelnik

    Hoje, 19 Fevereiro, Terça-feira

    Tempo Temperatura Precipitação Vento Pressão Humidade
    00:00 +2°C° 0 mm 1 m/s 742 mmHg 80%
    01:00 +1°C° 0 mm 2 m/s 742 mmHg 82%
    02:00 +2°C° 0 mm 1 m/s 742 mmHg 87%
    03:00 +1°C° 0 mm 2 m/s 742 mmHg 88%
    04:00 +1°C° 0 mm 2 m/s 742 mmHg 89%
    05:00 -1°C° 0 mm 3 m/s 741 mmHg 89%
    06:00 -1°C° 0 mm 3 m/s 741 mmHg 88%
    07:00 0°C° 0 mm 3 m/s 741 mmHg 86%
    08:00 -1°C° 0 mm 4 m/s 741 mmHg 84%
    09:00 0°C° 0 mm 4 m/s 741 mmHg 79%
    10:00 +2°C° 0 mm 5 m/s 741 mmHg 74%
    11:00 +3°C° 0 mm 5 m/s 741 mmHg 69%
    12:00 +5°C° 0 mm 5 m/s 740 mmHg 68%
    13:00 +4°C° 0 mm 6 m/s 740 mmHg 68%
    14:00 +5°C° 0 mm 6 m/s 739 mmHg 67%
    15:00 +6°C° 0 mm 5 m/s 739 mmHg 70%
    16:00 +5°C° 0 mm 5 m/s 738 mmHg 72%
    17:00 +5°C° 0 mm 5 m/s 738 mmHg 75%
    18:00 +3°C° 0 mm 5 m/s 738 mmHg 78%
    19:00 +3°C° 0 mm 4 m/s 737 mmHg 82%
    20:00 +3°C° 0 mm 4 m/s 737 mmHg 86%
    21:00 +1°C° 0 mm 4 m/s 737 mmHg 87%
    22:00 +1°C° 0 mm 4 m/s 737 mmHg 88%
    23:00 +1°C° 0 mm 4 m/s 736 mmHg 89%

    Amanhã, 20 Fevereiro, Quarta-feira

    Tempo Temperatura Precipitação Vento Pressão Humidade
    00:00 +1°C° 0 mm 4 m/s 736 mmHg 90%
    01:00 0°C° 0 mm 4 m/s 736 mmHg 91%
    02:00 0°C° 0 mm 4 m/s 736 mmHg 92%
    03:00 0°C° 0 mm 4 m/s 735 mmHg 91%
    04:00 0°C° 0 mm 4 m/s 735 mmHg 90%
    05:00 -1°C° 0 mm 4 m/s 735 mmHg 88%
    06:00 -1°C° 0 mm 4 m/s 735 mmHg 88%
    07:00 0°C° 0 mm 4 m/s 735 mmHg 88%
    08:00 0°C° 0 mm 4 m/s 735 mmHg 88%
    09:00 0°C° 0.3 mm 4 m/s 735 mmHg 88%
    10:00 +1°C° 0.3 mm 5 m/s 735 mmHg 88%
    11:00 +2°C° 0.3 mm 5 m/s 735 mmHg 88%
    12:00 +3°C° 0 mm 5 m/s 735 mmHg 84%
    13:00 +3°C° 0 mm 6 m/s 736 mmHg 79%
    14:00 +4°C° 0 mm 6 m/s 736 mmHg 75%
    15:00 +3°C° 0.1 mm 6 m/s 736 mmHg 75%
    16:00 +3°C° 0.1 mm 6 m/s 736 mmHg 76%
    17:00 +2°C° 0.1 mm 6 m/s 736 mmHg 76%
    18:00 +2°C° 0 mm 5 m/s 736 mmHg 77%
    19:00 +2°C° 0 mm 5 m/s 737 mmHg 77%
    20:00 +1°C° 0 mm 5 m/s 737 mmHg 78%
    21:00 +1°C° 0 mm 5 m/s 737 mmHg 78%
    22:00 +1°C° 0 mm 6 m/s 737 mmHg 78%
    23:00 +1°C° 0 mm 6 m/s 737 mmHg 78%

    Depois de amanhã, 21 Fevereiro, Quinta-feira

    Tempo Temperatura Precipitação Vento Pressão Humidade
    00:00 +1°C° 0 mm 6 m/s 737 mmHg 79%
    01:00 +1°C° 0 mm 6 m/s 737 mmHg 80%
    02:00 -1°C° 0 mm 6 m/s 737 mmHg 81%
    03:00 -1°C° 0 mm 7 m/s 737 mmHg 81%
    04:00 -1°C° 0 mm 7 m/s 737 mmHg 82%
    05:00 -1°C° 0 mm 8 m/s 737 mmHg 82%
    06:00 -2°C° 0 mm 7 m/s 737 mmHg 80%
    07:00 -2°C° 0 mm 7 m/s 738 mmHg 79%
    08:00 -2°C° 0 mm 7 m/s 738 mmHg 77%
    09:00 -2°C° 0 mm 7 m/s 738 mmHg 73%
    10:00 -1°C° 0 mm 8 m/s 738 mmHg 68%
    11:00 -1°C° 0 mm 9 m/s 738 mmHg 64%
    12:00 0°C° 0 mm 8 m/s 738 mmHg 64%
    13:00 0°C° 0 mm 8 m/s 738 mmHg 64%
    14:00 +1°C° 0 mm 8 m/s 738 mmHg 64%
    15:00 +2°C° 0 mm 7 m/s 738 mmHg 66%
    16:00 +2°C° 0 mm 6 m/s 738 mmHg 68%
    17:00 +2°C° 0 mm 5 m/s 737 mmHg 71%
    18:00 +1°C° 0 mm 4 m/s 738 mmHg 76%
    19:00 +1°C° 0 mm 4 m/s 738 mmHg 81%
    20:00 +2°C° 0 mm 3 m/s 738 mmHg 86%
    21:00 +2°C° 0.3 mm 2 m/s 738 mmHg 86%
    22:00 +2°C° 0.3 mm 2 m/s 738 mmHg 86%
    23:00 +2°C° 0.3 mm 2 m/s 738 mmHg 86%

    22 Fevereiro, Sexta-feira

    Tempo Temperatura Precipitação Vento Pressão Humidade
    00:00 +1°C° 0.1 mm 2 m/s 738 mmHg 84%
    01:00 -1°C° 0.1 mm 2 m/s 737 mmHg 81%
    02:00 -1°C° 0.1 mm 3 m/s 737 mmHg 78%
    03:00 -2°C° 0.1 mm 3 m/s 737 mmHg 79%
    04:00 -2°C° 0.1 mm 3 m/s 737 mmHg 80%
    05:00 -2°C° 0.1 mm 3 m/s 737 mmHg 81%
    06:00 -4°C° 0.1 mm 4 m/s 737 mmHg 79%
    07:00 -6°C° 0.1 mm 5 m/s 738 mmHg 78%
    08:00 -6°C° 0.1 mm 6 m/s 739 mmHg 76%
    09:00 -6°C° 0.1 mm 6 m/s 739 mmHg 72%
    10:00 -7°C° 0.1 mm 7 m/s 740 mmHg 68%
    11:00 -7°C° 0.1 mm 7 m/s 741 mmHg 64%
    12:00 -7°C° 0 mm 7 m/s 742 mmHg 60%
    13:00 -7°C° 0 mm 8 m/s 742 mmHg 55%
    14:00 -8°C° 0 mm 8 m/s 743 mmHg 50%
    15:00 -8°C° 0 mm 8 m/s 744 mmHg 50%
    16:00 -8°C° 0 mm 7 m/s 744 mmHg 49%
    17:00 -9°C° 0 mm 7 m/s 745 mmHg 48%
    18:00 -9°C° 0 mm 6 m/s 745 mmHg 49%
    19:00 -9°C° 0 mm 6 m/s 745 mmHg 49%
    20:00 -8°C° 0 mm 5 m/s 746 mmHg 50%
    21:00 -8°C° 0 mm 5 m/s 746 mmHg 50%
    22:00 -8°C° 0 mm 5 m/s 746 mmHg 50%
    23:00 -8°C° 0 mm 5 m/s 746 mmHg 50%

    23 Fevereiro, Sábado

    Tempo Temperatura Precipitação Vento Pressão Humidade
    00:00 -8°C° 0 mm 5 m/s 746 mmHg 51%
    01:00 -8°C° 0 mm 5 m/s 746 mmHg 53%
    02:00 -10°C° 0 mm 5 m/s 746 mmHg 54%
    03:00 -10°C° 0 mm 5 m/s 746 mmHg 56%
    04:00 -10°C° 0 mm 5 m/s 746 mmHg 58%
    05:00 -10°C° 0 mm 6 m/s 746 mmHg 60%
    06:00 -10°C° 0 mm 6 m/s 746 mmHg 60%
    07:00 -10°C° 0 mm 6 m/s 747 mmHg 60%
    08:00 -10°C° 0 mm 6 m/s 747 mmHg 60%
    09:00 -10°C° 0 mm 6 m/s 748 mmHg 57%
    10:00 -10°C° 0 mm 6 m/s 748 mmHg 53%
    11:00 -10°C° 0 mm 5 m/s 748 mmHg 50%
    12:00 -8°C° 0 mm 5 m/s 748 mmHg 49%
    13:00 -8°C° 0 mm 5 m/s 748 mmHg 48%
    14:00 -8°C° 0 mm 5 m/s 748 mmHg 47%
    15:00 -8°C° 0 mm 5 m/s 748 mmHg 48%
    16:00 -8°C° 0 mm 5 m/s 748 mmHg 48%
    17:00 -8°C° 0 mm 5 m/s 748 mmHg 48%
    18:00 -8°C° 0 mm 4 m/s 748 mmHg 50%
    19:00 -9°C° 0 mm 4 m/s 748 mmHg 52%
    20:00 -9°C° 0 mm 4 m/s 748 mmHg 54%
    21:00 -8°C° 0 mm 3 m/s 748 mmHg 55%
    22:00 -8°C° 0 mm 3 m/s 748 mmHg 56%
    23:00 -9°C° 0 mm 3 m/s 749 mmHg 57%

    24 Fevereiro, Domingo

    Tempo Temperatura Precipitação Vento Pressão Humidade
    00:00 -9°C° 0 mm 3 m/s 749 mmHg 59%
    01:00 -9°C° 0 mm 3 m/s 749 mmHg 61%
    02:00 -9°C° 0 mm 3 m/s 749 mmHg 63%
    03:00 -10°C° 0 mm 3 m/s 749 mmHg 65%
    04:00 -10°C° 0 mm 3 m/s 749 mmHg 68%
    05:00 -10°C° 0 mm 3 m/s 749 mmHg 70%
    06:00 -10°C° 0 mm 3 m/s 749 mmHg 71%
    07:00 -11°C° 0 mm 4 m/s 749 mmHg 72%
    08:00 -11°C° 0 mm 4 m/s 750 mmHg 73%
    09:00 -10°C° 0 mm 4 m/s 750 mmHg 68%
    10:00 -11°C° 0 mm 5 m/s 750 mmHg 63%
    11:00 -10°C° 0 mm 5 m/s 750 mmHg 59%
    12:00 -8°C° 0 mm 5 m/s 750 mmHg 54%
    13:00 -7°C° 0 mm 5 m/s 750 mmHg 49%
    14:00 -6°C° 0 mm 5 m/s 750 mmHg 45%
    15:00 -6°C° 0 mm 5 m/s 750 mmHg 43%
    16:00 -6°C° 0 mm 5 m/s 750 mmHg 42%
    17:00 -7°C° 0 mm 5 m/s 750 mmHg 41%
    18:00 -7°C° 0 mm 4 m/s 750 mmHg 42%
    19:00 -8°C° 0 mm 4 m/s 750 mmHg 44%
    20:00 -7°C° 0 mm 3 m/s 750 mmHg 45%
    21:00 -7°C° 0 mm 3 m/s 750 mmHg 46%
    22:00 -8°C° 0 mm 3 m/s 750 mmHg 46%
    23:00 -8°C° 0 mm 3 m/s 750 mmHg 47%
    Mostrar mais